Voltar ao catálogo

FENGYUN 1C DEB

AtivoSSO
NORAD 30566·DEBRIS·🇨🇳 China

Lançado May 10, 1999 de Taiyuan Satellite Launch Center

Loading…

Próximas Passagens (próximas 24 horas)

TLE

AtualizadoSource: Space-Track

Época: Sep 14, 2026, 15:48 UTC

1 30566U 99025ALG 26257.65891955  .00001211  00000-0  66212-3 0  9990
2 30566  99.1971 318.6026 0068716 129.2341  23.9746 14.12765723  2768

Acompanhe FENGYUN 1C DEB em tempo real com AllMySat

Download on the App Store